Location: Crocus Hill
(18.2167°N, 63.0667°W)
Time: 06:27:33
(UTC+00:00)

Nadezhda 3 Rocket - Pass Details

Date: 26 January 2020
Orbit: 958 x 999 km, 82.9° (Epoch: 19 February)

Event Time Altitude Azimuth Distance (km) Brightness Sun altitude
Rises 10:17:44 0° 189° (S) 3,626 7.1 -7.4°
Reaches altitude 10° 10:20:15 10° 192° (SSW) 2,680 6.4 -6.8°
Maximum altitude 10:26:20 69° 274° (W) 1,020 4.0 -5.4°
Drops below altitude 10° 10:32:27 10° 358° (N) 2,691 6.1 -4.0°
Sets 10:34:58 0° 0° (N) 3,642 6.8 -3.5°
